Regional Weather Roundup
Issued by NWS

Home | Current Version | Previous Version | Text Only | Print | Product List | Glossary On
Versions: 1 2 3 4 5 6 7 8 9 10 11 12 13 14 15 16 17 18 19 20 21 22 23 24 25 26 27
000
ASUS42 KKEY 290010
RWRKEY

FLORIDA REGIONAL WEATHER ROUNDUP FOR THE FLORIDA KEYS
NATIONAL WEATHER SERVICE KEY WEST FLORIDA
800 PM EDT WED SEP 28 2016

...SOUTH FLORIDA AND THE KEYS...

CITY           SKY/WX    TMP DP  RH WIND       PRES   REMARKS
FORT MYERS     CLOUDY    82  74  76 W7        30.00R
SW REGIONAL AP PTCLDY    82  72  71 W3        30.01R
NAPLES         CLOUDY    83  75  77 SW5       30.01R HX  90
MIAMI          PTCLDY    86  80  82 SW7       30.00S HX 101
WEST KENDALL   CLEAR     80  75  84 SW6       30.01R
HOMESTEAD      CLEAR     80  74  81 SW5       30.01R
MARATHON       CLEAR     81  73  76 CALM      30.02R
BOCA CHICA NAS PTCLDY    83  72  69 W5        30.02R
KEY WEST INTL  CLEAR     84  75  74 W3        30.02R HX  92

...INTERNATIONAL WEATHER...

CITY           SKY/WX    TMP DP  RH WIND       PRES   REMARKS
NASSAU BAHAMAS MOCLDY    86  73  66 CALM      30.05  HX  93
CANCUN MEXICO  PTCLDY    82  79  89 NE5       29.99R HX  93
COZUMEL MEXICO PTCLDY    81  75  83 CALM      29.97R

ADJACENT COASTAL WATERS...

STATION/POSITION TIME  SKY/WX   TEMP    WIND        PRES    WAVE
                                AIR SEA DIR/SP/G            HT/PER
                 (UTC)          (F)     (DEG/KT/KT) (MB)    (FT/S)
PULASKI SHOAL LI 0000            84     280/  1/  2 1016.9R
SAND KEY         2350            83     280/  3/  5 1017.0R
LONG KEY         0000            84 85  290/  4/  5 1016.9R
FOWEY ROCKS      0000            84 84  220/ 10/ 11 1016.8S

$$




USA.gov is the U.S. government's official web portal to all federal, state and local government web resources and services.